Weather History for Tallahassee, FL

Change the Weather History Date:

Tuesday, June 25, 2013

  Actual Average Record
Temperature  
Mean Temperature 83 °F 81 °F  
Max Temperature 93 °F 92 °F 101 °F (1988)
Min Temperature 73 °F 71 °F 62 °F (1966)
Degree Days  
Heating Degree Days 0    
Month to date heating degree days 0  
Since 1 June heating degree days 0  
Since 1 July heating degree days 1332  
Cooling Degree Days 18    
Month to date cooling degree days 437  
Year to date cooling degree days 899  
Since 1 June cooling degree days 437  
Growing Degree Days 33 (Base 50)    
Moisture  
Dew Point 73 °F    
Average Humidity 75    
Maximum Humidity 93    
Minimum Humidity 56    
Precipitation  
Precipitation 0.00 in 0.27 in 6.88 in (2012)
Month to date precipitation 5.32 6.39  
Year to date precipitation 27.71 28.05  
Sea Level Pressure  
Sea Level Pressure 30.11 in    
Wind  
Wind Speed 4 mph (SE)    
Max Wind Speed 16 mph    
Max Gust Speed 21 mph    
Visibility 9 miles    
Events Fog , Rain , Thunderstorm    
T = Trace of Precipitation, MM = Missing Value Source: NWS Daily Summary

Daily Weather History Graph

Daily Weather History Graph

Search for Another Location

Airport:

Trip Planner

Search our weather history database for the weather conditions in past years. The results will help you decide how hot, cold, wet, or windy it might be!

Date:

Astronomy

Jun. 25, 2013 Rise Set
Actual Time 6:36 AM EDT 8:43 PM EDT
Civil Twilight 6:09 AM EDT 9:10 PM EDT
Nautical Twilight 5:35 AM EDT 9:44 PM EDT
Astronomical Twilight 4:59 AM EDT 10:20 PM EDT
Moon 10:41 PM EDT (6/25) 9:04 AM EDT (6/25)
Length of Visible Light 15h 01m
Length of Day
14h 06m
Waning Gibbous, 93% of the Moon is Illuminated
Jun 25
Waning Gibbous
Jun 30
Last Quarter
Jul 8
New
Jul 15
First Quarter
Jul 22
Full

Hourly Weather History & Observations

Time (EDT) Temp. Heat Index Dew Point Humidity Pressure Visibility Wind Dir Wind Speed Gust Speed Precip Events Conditions
12:53 AM - - - N/A% 30.16 in - North - - N/A   Unknown
1:53 AM - - - N/A% 30.15 in - North - - N/A   Unknown
2:53 AM - - - N/A% 30.12 in - North - - N/A   Unknown
3:53 AM - - - N/A% 30.11 in - North - - N/A   Unknown
4:53 AM - - - N/A% 30.12 in - North - - N/A   Unknown
5:53 AM 75.2 °F - 72.1 °F 90% 30.12 in 10.0 mi Calm Calm - N/A Fog Patches of Fog
6:53 AM 73.9 °F - 71.1 °F 91% 30.13 in 10.0 mi Calm Calm - N/A   Partly Cloudy
7:53 AM 75.9 °F - 72.0 °F 87% 30.14 in 10.0 mi East 3.5 mph - N/A   Partly Cloudy
8:53 AM 78.1 °F - 73.0 °F 84% 30.15 in 10.0 mi Calm Calm - N/A   Partly Cloudy
9:53 AM 82.9 °F 90.8 °F 75.9 °F 79% 30.16 in 10.0 mi Calm Calm - N/A   Partly Cloudy
10:53 AM 87.1 °F 97.3 °F 75.9 °F 69% 30.15 in 10.0 mi Calm Calm - N/A   Partly Cloudy
11:53 AM 91.0 °F 100.4 °F 73.9 °F 57% 30.14 in 10.0 mi Calm Calm - N/A   Scattered Clouds
12:40 PM 91.4 °F 102.5 °F 75.2 °F 59% 30.13 in 10.0 mi Calm Calm - N/A Thunderstorm Thunderstorm
12:53 PM 93.0 °F 103.2 °F 73.9 °F 54% 30.12 in 10.0 mi NNE 4.6 mph - N/A Thunderstorm Thunderstorm
1:53 PM 79.5 °F - 78.1 °F 95% 30.11 in 6.0 mi SSW 13.8 mph - N/A Rain , Thunderstorm Light Thunderstorms and Rain
2:27 PM 78.8 °F - 77.0 °F 94% 30.11 in 10.0 mi SSW 10.4 mph - N/A   Scattered Clouds
2:53 PM 82.9 °F 93.8 °F 79.0 °F 88% 30.10 in 10.0 mi South 5.8 mph - N/A   Partly Cloudy
3:44 PM 84.2 °F 90.9 °F 73.4 °F 70% 30.09 in 10.0 mi South 6.9 mph - N/A Thunderstorm Thunderstorm
3:53 PM 84.0 °F 90.2 °F 73.0 °F 69% 30.09 in 10.0 mi SSW 9.2 mph - N/A Thunderstorm Thunderstorm
4:53 PM 84.9 °F 91.4 °F 73.0 °F 67% 30.08 in 10.0 mi South 9.2 mph - N/A Thunderstorm Thunderstorm
5:53 PM 84.9 °F 91.4 °F 73.0 °F 67% 30.07 in 10.0 mi SSE 3.5 mph - N/A Thunderstorm Thunderstorm
6:30 PM 82.4 °F 87.2 °F 71.6 °F 70% 30.08 in 10.0 mi East 15.0 mph - N/A   Mostly Cloudy
6:39 PM 80.6 °F 83.9 °F 69.8 °F 70% 30.09 in 10.0 mi ENE 12.7 mph - N/A Thunderstorm Thunderstorm
6:45 PM 80.6 °F 84.6 °F 71.6 °F 74% 30.08 in 1.8 mi East 16.1 mph - N/A Thunderstorm Unknown
6:47 PM 80.6 °F 84.6 °F 71.6 °F 74% 30.08 in 6.0 mi East 16.1 mph - N/A Thunderstorm Unknown
6:53 PM 80.1 °F 83.6 °F 71.1 °F 74% 30.08 in 10.0 mi East 12.7 mph - N/A Thunderstorm Thunderstorm
7:16 PM 78.8 °F - 69.8 °F 74% 30.05 in 10.0 mi SSE 8.1 mph - N/A   Mostly Cloudy
7:53 PM 79.0 °F - 70.0 °F 74% 30.08 in 10.0 mi SE 4.6 mph - N/A   Mostly Cloudy
8:53 PM 77.0 °F - 71.1 °F 82% 30.09 in 10.0 mi Calm Calm - N/A   Scattered Clouds
9:53 PM 77.0 °F - 71.1 °F 82% 30.09 in 10.0 mi Calm Calm - N/A   Partly Cloudy
10:53 PM 75.0 °F - 71.1 °F 87% 30.07 in 10.0 mi SSE 3.5 mph - N/A   Partly Cloudy
11:53 PM 75.0 °F - 71.1 °F 87% 30.09 in 10.0 mi Calm Calm - N/A   Clear